Burnet, TX

3:38 PM CST on January 19, 2018 (GMT -0600)
Burnet Municipal-Craddock

Weather History for KBMQ - December, 2011

Change the Weather History Date:

Friday, December 30, 2011

  Actual Average Record
Temperature  
Mean Temperature 58 °F -  
Max Temperature 73 °F 57 °F 73 °F (1999)
Min Temperature 44 °F 36 °F 24 °F (2000)
Degree Days  
Heating Degree Days 6    
Growing Degree Days 8 (Base 50)    
Moisture  
Dew Point 30 °F    
Average Humidity 41    
Maximum Humidity 68    
Minimum Humidity 15    
Precipitation  
Precipitation 0.00 in - - ()
Sea Level Pressure  
Sea Level Pressure 30.01 in    
Wind  
Wind Speed 4 mph (NNE)    
Max Wind Speed 14 mph    
Max Gust Speed 24 mph    
Visibility 10 miles    
Events      
Averages and records for this station are not official NWS values.
T = Trace of Precipitation, MM = Missing Value Source: NWS Daily Summary

Daily Weather History Graph

Daily Weather History Graph

Search for Another Location

Airport or City:

Trip Planner

Search our weather history database for the weather conditions in past years. The results will help you decide how hot, cold, wet, or windy it might be!

Date:

Astronomy

Dec. 30, 2011 Rise Set
Actual Time 7:29 AM CST 5:41 PM CST
Civil Twilight 7:03 AM CST 6:07 PM CST
Nautical Twilight 6:33 AM CST 6:37 PM CST
Astronomical Twilight 6:03 AM CST 7:07 PM CST
Moon 11:16 AM CST (12/30) 11:49 PM CST (12/30)
Length of Visible Light 11h 04m
Length of Day
10h 11m
Waxing Crescent, 36% of the Moon is Illuminated
Dec 30
Waxing Crescent
Jan 1
First Quarter
Jan 9
Full
Jan 16
Last Quarter
Jan 23
New

Hourly Weather History & Observations

Time (CST) Temp. Windchill Dew Point Humidity Pressure Visibility Wind Dir Wind Speed Gust Speed Precip Events Conditions
12:53 AM 44.1 °F - 34.0 °F 68% 29.90 in 10.0 mi Calm Calm - N/A   Clear
1:53 AM 45.0 °F 43.5 °F 33.1 °F 63% 29.89 in 10.0 mi South 3.5 mph - N/A   Clear
2:53 AM 46.0 °F - 33.1 °F 61% 29.90 in 10.0 mi Calm Calm - N/A   Clear
3:53 AM 44.1 °F - 33.1 °F 65% 29.90 in 10.0 mi Calm Calm - N/A   Clear
4:53 AM 44.1 °F 42.5 °F 32.0 °F 63% 29.91 in 10.0 mi WNW 3.5 mph - N/A   Clear
5:53 AM 48.0 °F - 32.0 °F 54% 29.95 in 10.0 mi Calm Calm - N/A   Clear
6:53 AM 44.1 °F 40.8 °F 33.1 °F 65% 29.98 in 10.0 mi West 5.8 mph - N/A   Clear
7:53 AM 54.0 °F - 33.1 °F 45% 30.01 in 10.0 mi NNW 12.7 mph - N/A   Clear
8:53 AM 55.9 °F - 34.0 °F 44% 30.04 in 10.0 mi North 8.1 mph - N/A   Clear
10:53 AM 64.9 °F - 35.1 °F 33% 30.06 in 10.0 mi NE 12.7 mph 24.2 mph N/A   Clear
11:53 AM 68.0 °F - 30.9 °F 25% 30.04 in 10.0 mi ENE 11.5 mph - N/A   Clear
12:53 PM 70.0 °F - 25.0 °F 18% 30.04 in 10.0 mi NE 13.8 mph 20.7 mph N/A   Clear
1:53 PM 72.0 °F - 25.0 °F 17% 30.01 in 10.0 mi NE 11.5 mph - N/A   Clear
2:53 PM 73.9 °F - 23.0 °F 15% 30.02 in 10.0 mi North 8.1 mph - N/A   Clear
3:53 PM 73.0 °F - 21.9 °F 15% 30.01 in 10.0 mi NNE 6.9 mph - N/A   Clear
4:53 PM 71.1 °F - 23.0 °F 16% 30.02 in 10.0 mi NE 5.8 mph - N/A   Clear
5:53 PM 63.0 °F - 26.1 °F 25% 30.04 in 10.0 mi Calm Calm - N/A   Clear
6:53 PM 57.9 °F - 27.0 °F 31% 30.07 in 10.0 mi North 4.6 mph - N/A   Clear
7:53 PM 55.0 °F - 28.0 °F 35% 30.08 in 10.0 mi North 4.6 mph - N/A   Clear
8:53 PM 55.0 °F - 28.9 °F 37% 30.10 in 10.0 mi NNE 3.5 mph - N/A   Clear
9:53 PM 50.0 °F - 30.9 °F 48% 30.09 in 10.0 mi Calm Calm - N/A   Clear
10:53 PM 50.0 °F - 30.9 °F 48% 30.07 in 10.0 mi Calm Calm - N/A   Clear
11:53 PM 48.9 °F - 30.9 °F 50% 30.06 in 10.0 mi NNE 4.6 mph - N/A   Clear